Theta_e
333 335 337 339 340 339 339 338 337 335 337 335 334 334 333 330 329 328 328 327 326 326 326 335 334 334 336 338 338 338 338 339 338 337 336 336 338 340 341 340 338 337 335 333 332 331 331 331 331 330 329 328 327 328 328 326 324 323 323 323 323 322 322 322 322 321 321 321 321 320 320 320 320 320 320 320 320 320 319 319 319 319 319 320 319
332 334 334 336 338 338 338 336 336 335 336 334 333 333 333 331 329 327 327 328 327 327 331 333 333 335 336 337 336 337 337 338 337 336 336 335 336 338 340 338 337 336 333 333 332 332 331 331 330 330 329 328 327 326 326 326 325 324 323 323 323 322 321 321 321 321 321 321 320 320 320 319 318 318 318 319 319 319 320 320 319 318 319 318 318
334 333 332 334 336 336 336 336 334 334 336 335 334 332 334 334 330 328 327 328 329 334 332 332 334 335 337 336 335 336 337 337 336 335 335 334 334 334 336 336 335 335 333 332 332 331 330 329 329 328 327 326 325 325 325 324 323 323 323 322 321 321 321 321 320 320 320 320 320 320 319 318 317 318 317 317 317 317 318 319 318 317 317 318 318
335 334 332 332 335 336 337 335 334 334 337 336 333 332 333 336 334 331 331 332 333 334 334 334 334 336 336 335 335 335 335 335 335 333 333 332 332 331 331 331 333 333 332 331 330 330 330 329 328 328 327 325 323 324 323 323 322 321 322 321 320 320 320 320 320 320 319 319 320 320 319 318 317 317 316 316 316 317 317 317 316 317 317 318 318
336 336 335 333 335 336 337 338 336 337 338 335 333 331 334 335 333 335 332 337 338 337 338 335 335 336 336 336 335 335 335 335 335 333 332 331 330 329 328 329 328 331 331 330 330 329 329 329 329 328 327 327 325 324 323 323 322 321 321 320 319 319 319 319 319 319 320 319 318 318 319 318 317 317 317 316 315 316 316 316 316 316 317 318 318
341 336 335 335 336 336 336 337 337 338 338 335 333 335 336 335 335 335 341 338 336 336 336 335 335 335 335 338 337 335 336 335 336 336 332 330 329 328 328 327 326 326 327 330 329 328 327 328 328 328 328 327 327 326 325 324 323 322 321 319 318 317 317 317 317 318 320 319 318 318 318 318 317 318 318 316 315 316 316 316 316 316 317 317 317
342 339 338 337 337 336 336 336 338 338 334 336 336 335 334 333 333 334 336 337 337 337 336 336 336 335 335 337 337 337 336 335 336 335 333 329 328 327 326 325 324 324 326 325 330 328 328 328 328 328 327 326 326 325 325 324 323 321 319 318 317 317 316 316 317 317 319 319 318 318 317 316 316 317 317 316 316 316 316 316 316 317 317 317 317
341 340 339 337 337 336 335 336 337 336 334 337 336 332 331 335 334 334 334 334 337 336 336 335 335 335 335 336 336 337 335 333 333 333 331 328 327 326 324 323 322 321 327 322 323 327 328 328 328 327 326 325 325 325 324 323 322 321 320 318 317 317 316 316 317 317 318 317 317 318 317 316 316 317 316 315 316 317 316 316 317 317 317 317 316
340 340 339 337 336 335 335 336 336 334 335 335 334 335 334 335 333 333 334 334 335 335 334 334 333 334 334 334 334 334 332 332 331 331 332 327 327 326 323 322 323 330 323 321 321 323 327 328 327 325 324 324 324 323 322 321 322 319 317 316 316 316 316 315 316 317 317 316 317 317 316 315 315 316 315 316 316 316 316 317 317 317 316 316 316
339 339 338 339 335 334 335 335 336 334 337 335 333 333 333 334 333 333 336 335 334 334 334 333 334 333 332 333 332 331 330 331 331 335 323 327 326 325 323 322 323 323 322 321 321 321 323 327 326 324 325 324 325 325 324 323 321 321 318 316 316 317 318 316 316 317 317 316 316 315 315 314 315 315 315 316 316 316 317 317 316 316 316 316 315
338 338 337 338 336 334 335 338 337 337 341 337 337 334 333 334 334 332 334 335 335 335 335 334 334 333 331 330 329 330 331 331 332 328 322 324 323 325 324 322 323 323 321 321 320 320 319 319 319 318 321 324 323 323 323 323 321 322 320 319 317 317 317 316 315 316 316 316 315 314 313 314 315 314 315 316 316 316 317 316 315 315 316 315 315
338 337 337 338 339 336 337 342 340 339 340 339 335 334 333 333 333 332 333 333 335 335 334 333 330 329 328 328 330 329 330 329 329 327 323 322 322 320 321 322 322 322 321 321 320 319 318 318 320 318 318 322 323 321 322 322 321 319 318 318 317 316 316 316 314 315 315 315 314 313 313 314 314 314 315 316 316 317 317 316 315 315 315 315 315
338 337 336 342 341 341 342 343 343 341 340 339 334 334 333 333 333 332 332 331 331 333 334 332 329 324 325 325 324 329 333 330 329 327 322 320 320 317 316 317 315 316 321 320 319 318 318 318 318 316 316 316 321 323 322 322 321 318 318 317 317 315 315 314 314 314 314 313 313 313 313 313 313 314 315 315 315 317 316 315 315 315 314 314 315
338 339 338 340 341 341 342 343 342 342 341 341 336 336 335 334 333 331 331 331 331 334 334 330 323 323 321 319 321 322 326 326 328 329 325 321 319 318 315 314 313 311 318 319 318 318 318 317 317 316 315 315 315 316 318 320 320 319 316 317 316 315 314 313 313 313 313 313 312 312 313 313 314 314 314 314 315 316 315 314 314 314 314 314 314
338 340 340 341 341 341 342 343 341 341 341 341 338 335 335 334 331 330 329 329 329 333 332 329 324 323 322 321 316 317 318 321 324 326 327 321 319 318 318 314 314 311 314 318 317 317 317 316 316 315 313 313 314 314 315 319 315 321 318 318 315 315 315 314 313 312 312 312 312 312 313 313 313 313 314 313 314 315 314 313 313 314 314 314 314
340 339 342 342 341 341 342 343 342 341 341 340 338 335 334 332 331 330 331 328 328 330 332 332 327 324 318 317 316 315 312 316 320 322 326 324 319 317 318 315 313 311 313 312 315 317 317 316 315 313 313 312 313 312 313 312 318 320 319 317 316 316 315 313 312 312 311 311 312 313 313 313 313 312 313 313 314 314 313 313 313 313 313 314 314
339 340 340 341 341 342 342 342 342 342 341 340 339 337 334 333 333 331 331 329 326 327 330 332 328 328 323 319 316 314 314 316 318 319 323 323 321 317 319 315 313 311 310 309 310 313 314 314 315 313 312 311 310 310 311 312 314 318 316 318 318 316 315 312 310 311 311 312 312 313 313 312 312 312 312 313 314 314 313 313 312 312 313 314 313
338 339 339 340 341 341 342 342 341 342 341 341 340 339 336 334 334 333 331 330 329 327 327 331 331 329 328 325 321 316 315 318 318 313 320 324 322 320 318 316 316 311 310 309 309 308 310 309 311 311 311 310 309 308 308 309 313 312 311 314 319 317 313 311 310 309 310 311 312 313 313 313 312 311 312 314 314 313 313 312 312 312 313 313 313
338 338 338 339 341 341 341 341 342 342 342 340 340 339 338 337 336 334 332 331 330 327 327 328 329 331 331 329 329 326 324 319 315 313 312 317 320 318 317 317 316 311 310 310 309 308 307 309 310 310 310 310 310 308 307 307 315 316 320 321 319 317 313 310 310 308 310 310 312 312 312 312 312 311 313 314 313 312 312 311 311 312 312 313 312
338 338 337 338 341 341 342 341 341 342 342 341 340 341 339 339 338 336 334 332 330 328 327 329 328 328 331 328 328 328 327 323 320 317 313 313 315 318 318 316 316 312 310 310 310 309 307 309 310 309 309 310 309 309 309 308 312 315 317 320 319 317 314 312 310 310 309 309 311 312 312 311 311 311 313 314 312 312 311 311 311 312 312 312 312
338 337 337 337 340 341 341 341 341 342 342 341 340 341 340 338 337 336 335 332 330 328 328 328 329 328 328 327 328 326 326 325 324 322 315 312 313 315 314 315 315 315 313 311 310 310 310 309 310 310 310 310 309 309 311 311 313 314 318 320 319 317 315 314 312 312 309 309 310 311 311 311 310 312 314 313 312 311 310 310 311 311 312 312 311
337 337 337 337 338 341 341 341 340 341 341 341 340 341 341 339 337 337 336 332 331 330 328 329 330 330 329 328 326 324 323 324 322 320 318 318 313 313 314 313 310 313 315 314 313 312 311 309 310 310 309 309 309 308 310 312 312 313 315 319 318 316 315 312 311 312 311 310 310 310 309 309 310 312 313 313 312 310 310 310 311 311 312 311 311
336 336 337 337 337 340 341 341 340 340 340 340 339 340 341 340 338 337 336 334 332 332 330 331 331 330 329 328 327 326 324 322 321 321 319 315 314 313 314 314 313 312 314 316 316 315 311 308 309 309 309 309 308 309 309 311 316 314 318 318 317 314 312 311 312 312 311 310 310 309 309 309 311 312 313 312 310 310 310 311 311 311 311 311 312
335 335 335 336 336 338 340 340 340 340 338 339 339 339 341 340 339 337 336 335 335 333 332 331 330 329 329 329 328 327 325 324 323 322 320 317 316 314 313 313 314 313 316 315 316 315 311 308 309 309 309 309 309 309 310 312 312 317 317 317 316 314 312 311 313 312 311 311 310 311 310 310 311 311 311 310 310 310 310 310 310 310 311 313 313
334 334 334 335 336 336 337 338 339 339 339 338 338 339 341 340 339 337 336 335 334 333 332 331 330 329 329 329 329 327 326 325 324 323 321 319 318 314 315 314 312 312 314 315 313 315 313 309 310 310 309 309 310 310 310 311 311 317 316 315 315 315 313 312 312 313 312 310 310 310 310 309 309 309 309 309 309 309 309 309 309 310 311 311 312
333 334 335 335 336 337 337 338 339 340 339 339 338 338 341 340 339 337 336 336 335 333 332 331 330 331 330 329 329 328 327 327 325 324 323 321 316 316 315 316 314 312 312 313 313 312 312 310 310 310 309 309 309 308 308 309 310 317 315 309 313 314 314 313 313 312 312 312 311 310 310 310 310 309 308 308 308 308 309 309 310 311 311 312 311
334 335 336 336 336 338 338 338 338 339 339 339 338 338 340 340 338 338 337 336 335 333 332 332 331 331 330 330 329 329 328 326 326 325 324 323 320 318 317 315 313 309 309 311 310 311 312 309 310 309 309 309 309 308 306 306 309 315 315 306 307 314 313 312 313 313 312 312 313 312 311 310 309 309 309 308 308 309 310 310 311 311 311 311 311
335 336 336 337 336 338 338 338 339 339 339 339 338 337 339 338 338 337 336 337 335 334 333 333 332 332 331 330 328 328 328 327 327 326 324 324 324 321 320 317 314 309 308 307 308 309 312 308 308 309 309 308 309 308 310 308 307 315 313 304 304 308 311 310 312 312 312 312 312 312 310 309 309 309 309 309 309 309 310 311 311 311 311 311 311
337 338 337 337 337 338 339 338 338 339 338 338 338 337 338 337 337 336 335 336 335 334 333 333 332 332 331 329 328 327 327 327 327 327 327 325 325 323 322 320 317 313 307 305 306 307 310 311 306 307 309 309 309 309 307 305 309 313 305 303 304 303 309 309 309 312 313 312 312 312 311 311 310 310 310 310 310 311 311 310 310 311 311 311 311
338 339 338 338 338 339 338 338 339 339 339 339 338 338 337 336 336 336 336 336 334 334 333 333 332 331 330 329 328 327 327 327 327 327 326 326 324 324 323 321 319 316 312 308 308 310 309 309 308 305 306 308 308 307 306 304 312 308 301 301 305 303 308 308 307 307 308 309 309 308 308 308 310 310 309 309 310 310 310 310 310 311 311 312 312
338 339 339 338 338 338 338 338 338 338 339 338 338 337 337 335 335 335 335 335 334 333 332 332 331 331 329 329 329 328 328 327 327 327 326 326 325 322 321 321 319 318 315 312 307 307 310 306 304 307 306 307 308 307 307 305 311 307 302 301 304 309 310 308 307 305 306 306 307 308 308 308 307 309 309 309 308 309 310 310 311 311 311 311 310
339 339 339 339 338 337 337 337 337 338 338 339 338 337 336 335 334 334 334 334 333 332 331 331 331 330 329 328 328 328 327 326 326 326 325 325 325 323 322 321 318 317 314 310 307 306 308 306 304 304 307 306 307 306 306 306 309 311 303 303 304 312 309 305 307 306 305 305 305 305 307 307 306 307 308 309 310 311 311 311 311 309 309 308 307
340 339 339 339 338 338 337 337 337 337 338 338 338 337 336 334 334 334 333 333 332 331 330 329 330 329 328 328 327 327 327 326 325 325 325 324 324 322 322 319 316 314 312 309 306 306 306 306 303 303 306 306 305 306 305 305 305 307 306 303 304 307 306 304 303 306 305 304 304 303 302 302 303 307 308 310 310 310 311 308 306 306 306 306 304
341 340 339 339 338 338 337 337 337 337 338 338 338 337 336 334 333 334 333 332 331 330 329 328 328 329 327 326 326 326 327 326 325 325 324 323 322 320 318 317 313 313 313 312 307 305 303 302 302 304 304 306 304 305 304 303 303 304 301 301 304 305 305 304 302 303 305 305 304 302 302 301 301 302 303 303 303 303 303 302 302 302 303 304 301
341 341 340 339 339 338 338 337 337 337 338 338 338 337 337 335 333 333 332 331 330 329 327 327 326 326 325 326 325 326 327 325 325 324 321 320 319 318 316 314 312 311 312 311 307 305 303 303 303 302 302 304 302 303 304 304 303 303 301 301 302 306 306 304 303 304 304 304 303 302 302 302 301 301 301 301 301 301 301 301 301 301 301 301 300
341 340 340 339 339 338 337 337 337 337 337 338 338 338 337 335 334 333 332 331 330 329 328 327 326 325 324 323 323 324 324 324 323 319 318 318 316 315 315 313 312 311 310 309 309 304 303 303 302 302 304 302 303 304 303 304 302 301 301 301 302 304 305 306 304 304 304 304 303 302 302 302 301 301 301 301 301 301 301 301 301 301 301 301 301
341 341 340 340 339 338 338 337 337 336 337 338 338 337 337 336 334 333 332 331 329 328 327 327 328 325 324 323 322 321 321 320 318 318 316 315 315 314 313 311 310 310 311 309 307 308 306 303 302 303 303 303 304 302 301 302 302 301 301 301 301 302 303 304 306 307 306 305 303 303 302 302 302 301 301 301 301 301 302 302 302 302 302 302 302
340 341 340 339 338 338 338 337 337 337 337 337 338 337 337 335 334 333 332 331 329 328 327 326 326 325 324 323 322 322 320 319 317 316 315 314 313 311 310 309 308 307 307 307 308 307 307 304 303 303 301 303 302 300 299 300 301 300 300 300 302 302 301 301 303 307 307 305 302 302 303 302 302 302 302 301 301 301 301 301 301 302 302 302 302
340 340 339 339 338 338 338 338 337 337 336 336 337 337 336 335 334 332 331 330 329 328 327 326 326 325 324 323 322 321 321 319 317 316 314 311 311 309 308 307 305 306 306 307 307 306 306 304 303 302 301 301 300 298 300 300 300 300 299 299 299 301 303 300 301 304 305 304 303 303 302 302 303 302 301 301 301 302 302 302 303 303 303 302 301
340 340 339 339 338 338 338 337 337 336 336 336 336 336 336 335 334 332 331 330 328 327 326 326 326 325 323 322 321 321 320 319 318 316 314 311 309 307 306 306 306 306 305 305 306 305 305 304 302 299 299 299 300 301 303 297 297 297 299 297 295 297 300 301 301 302 303 304 302 303 303 303 302 303 303 303 303 304 305 305 305 306 305 304 301
340 340 340 339 338 337 337 337 337 336 335 335 336 336 335 335 334 332 331 329 328 327 326 325 325 323 322 320 320 320 320 321 318 317 315 314 309 306 306 305 307 306 304 303 303 302 301 302 301 300 298 297 297 298 296 296 294 295 298 298 297 299 299 299 299 301 304 302 302 303 304 304 303 303 303 303 304 306 306 305 304 305 304 301 300
340 340 340 339 338 337 336 336 336 336 335 335 329 322 324 333 333 332 331 329 328 327 325 324 323 322 321 319 320 322 320 318 315 310 308 309 312 310 306 306 308 305 303 301 300 301 300 299 299 299 298 297 296 297 297 297 298 300 301 299 297 297 299 298 298 300 305 301 300 298 300 303 303 302 302 302 304 305 303 302 302 302 302 300 300
340 339 339 338 337 337 336 335 335 335 335 334 319 312 313 317 330 331 330 328 327 326 325 324 322 321 318 318 318 320 319 317 314 306 305 305 305 306 307 310 311 306 303 301 300 300 300 299 300 299 298 297 298 299 299 300 299 301 299 299 297 297 296 295 294 296 303 300 298 297 298 299 302 301 302 302 304 304 303 302 301 302 301 300 300
340 339 338 338 338 337 337 336 335 335 335 324 310 309 310 311 319 331 330 328 326 325 325 324 322 319 317 316 316 318 316 315 313 309 307 304 302 302 301 302 302 303 303 303 301 299 299 299 299 299 298 298 299 300 299 300 299 299 300 299 298 296 295 295 293 295 298 302 298 296 298 300 302 301 301 304 304 302 303 302 301 300 300 300 300
340 338 338 338 337 337 336 335 335 335 334 319 308 307 308 309 311 323 330 329 326 325 324 324 322 318 316 315 314 315 316 315 313 307 305 304 303 302 302 302 300 298 296 299 301 303 301 300 300 299 300 300 300 301 301 301 302 299 298 298 297 296 295 295 294 294 297 300 297 296 295 299 300 300 299 300 300 300 302 301 301 300 300 300 300
340 339 338 337 337 337 336 336 335 335 335 319 306 306 307 307 308 317 330 328 326 325 324 323 322 318 316 314 313 312 311 311 306 304 303 302 302 303 303 302 303 301 297 296 297 301 303 303 301 300 302 302 301 302 304 303 302 300 299 297 299 298 297 297 297 297 298 301 297 295 294 298 299 299 296 296 300 299 299 300 299 300 300 300 299
340 338 338 337 337 336 336 336 335 335 336 314 305 305 306 306 306 314 331 329 326 325 324 322 320 318 316 315 313 311 309 307 306 304 302 301 302 302 302 301 300 300 300 301 302 305 308 307 305 304 304 304 304 305 304 303 303 302 301 301 299 297 297 297 296 296 299 301 299 298 296 296 295 295 295 296 299 299 299 299 299 300 300 299 299
341 340 339 338 337 336 337 336 335 334 336 309 304 304 305 305 305 325 330 327 325 324 324 322 318 317 316 314 312 310 308 307 305 300 301 302 302 301 301 300 300 301 302 306 302 304 308 306 304 303 302 302 302 304 303 303 303 303 304 302 300 298 296 296 295 296 296 299 300 298 294 293 295 296 295 296 295 297 298 298 299 300 300 299 298
340 339 338 337 337 337 336 336 335 334 335 310 303 303 304 304 308 328 328 326 324 323 323 320 318 316 315 313 311 309 308 307 301 296 297 301 301 301 301 300 301 301 300 298 295 296 296 295 294 293 292 293 296 297 298 299 301 300 298 297 295 296 296 294 294 293 292 294 297 298 294 294 294 295 296 295 295 296 297 298 298 299 299 299 298
339 339 339 338 337 337 336 336 336 335 335 316 302 303 303 303 314 328 327 325 323 322 322 319 318 316 316 315 314 310 308 307 297 296 296 301 301 300 300 300 300 299 298 299 300 296 293 293 292 292 293 293 294 295 296 296 297 300 298 295 294 294 294 293 290 291 292 294 297 300 295 294 294 293 294 294 294 292 296 296 296 298 298 298 298
339 340 338 338 337 337 336 336 328 332 335 315 300 302 302 302 314 329 327 325 323 322 321 319 317 316 315 313 313 310 309 305 295 296 296 301 302 301 300 300 299 298 299 300 299 297 297 296 294 296 294 297 298 298 298 296 297 301 298 296 295 293 292 291 292 291 291 292 296 298 295 292 294 293 293 292 292 293 293 295 296 297 297 297 298
Wind_Speed
7 7 7 8 8 8 7 7 6 6 6 6 6 6 6 6 6 6 6 6 5 6 4 7 6 5 5 6 6 6 5 5 5 5 5 5 5 8 13 13 11 11 11 11 10 10 10 10 9 9 9 9 9 9 9 10 10 10 10 10 10 10 10 10 9 9 9 9 9 9 9 9 10 10 10 10 10 11 11 11 11 11 11 12 11
7 7 8 8 9 8 8 7 7 6 6 6 6 6 7 6 6 6 7 6 7 4 6 9 7 6 5 6 6 6 5 5 5 5 5 5 5 6 12 12 11 9 10 10 11 10 10 10 9 9 9 9 9 8 9 9 9 9 8 8 8 8 8 8 7 7 7 7 7 8 8 10 11 11 11 11 11 10 10 10 11 11 10 9 11
7 6 7 7 7 7 7 7 6 6 7 7 6 7 7 7 6 7 6 8 1 7 9 8 7 7 6 6 6 6 5 5 5 5 5 5 4 4 7 11 10 10 10 10 11 10 10 9 9 9 9 9 9 8 8 9 9 8 8 7 6 6 6 5 5 5 4 5 5 6 8 10 11 11 11 11 11 11 11 11 11 11 11 11 10
7 6 6 6 5 6 7 7 7 6 7 7 8 8 7 8 8 7 7 3 6 6 7 8 7 7 7 7 6 6 6 5 5 6 5 4 5 4 5 6 11 11 10 10 10 10 10 9 9 9 9 9 8 8 8 9 9 8 7 6 5 4 3 4 4 6 6 7 8 7 7 9 10 10 11 11 11 11 11 11 11 10 10 11 10
6 7 7 6 5 6 7 7 8 6 8 9 10 8 7 6 7 3 4 5 7 6 5 5 7 7 7 7 6 6 6 5 5 6 6 6 5 5 5 5 5 11 11 10 11 10 10 9 9 9 8 8 8 7 7 7 7 7 6 5 4 3 3 4 4 5 4 6 8 8 8 8 10 10 11 11 11 10 10 10 10 10 10 10 10
5 6 6 6 6 6 5 5 6 6 7 8 8 7 7 4 1 6 6 6 6 7 6 5 4 5 6 7 6 7 6 6 5 5 6 6 6 6 5 5 5 5 6 11 11 10 10 9 9 9 8 7 7 7 6 6 5 5 4 3 3 3 4 4 5 5 5 5 7 8 8 8 9 9 9 11 11 10 10 10 10 10 10 11 11
4 6 6 6 6 5 5 5 4 4 5 6 6 6 6 2 5 6 6 5 5 5 6 6 6 5 5 5 6 6 6 6 5 5 5 6 6 6 6 5 5 5 5 5 8 11 11 10 9 9 8 7 7 7 6 6 5 4 4 3 2 1 1 2 3 4 5 5 6 7 8 9 10 10 10 10 10 10 11 10 10 10 10 11 11
4 5 6 6 6 6 6 5 4 4 5 4 4 5 3 6 3 6 7 5 5 5 5 6 5 6 4 4 5 6 6 6 6 6 5 7 7 6 6 6 5 5 5 5 5 6 12 10 9 8 7 7 6 6 6 6 5 4 4 3 2 2 0 2 3 4 5 5 6 7 8 9 10 10 10 10 10 10 10 10 10 10 10 11 11
4 5 5 5 6 6 6 6 5 5 5 5 4 1 3 6 2 2 6 6 6 5 4 6 5 4 4 4 4 4 3 4 5 5 5 9 8 7 7 6 6 7 5 5 5 5 9 12 10 9 8 8 7 7 6 5 5 4 3 1 1 1 1 1 2 3 4 6 7 8 9 10 10 10 10 9 9 10 9 9 10 10 10 11 11
5 5 6 5 5 6 6 6 6 6 6 6 3 2 5 5 3 0 4 6 5 7 6 5 5 5 3 4 4 3 3 3 4 4 6 8 8 8 8 7 7 6 6 5 5 6 5 9 11 10 10 8 9 8 8 7 6 6 4 3 3 1 2 1 2 3 4 5 7 8 9 9 9 9 9 8 9 9 9 9 10 10 10 10 10
6 6 7 5 5 6 7 6 6 6 6 5 4 3 3 5 3 2 2 4 6 6 7 6 5 4 4 3 3 3 3 3 4 4 5 7 7 8 8 7 7 7 7 6 6 6 6 5 5 4 5 9 8 8 8 7 6 7 7 6 5 2 2 2 2 3 4 6 7 8 8 8 8 8 8 8 8 8 9 9 9 9 9 10 9
6 7 7 6 6 7 7 6 7 7 7 6 4 2 4 5 5 5 4 2 1 4 5 6 4 4 3 1 1 2 3 2 2 4 4 6 7 8 9 8 7 8 8 7 6 6 6 6 5 6 4 7 10 9 8 8 7 6 7 6 5 4 2 2 2 3 4 5 7 7 7 7 7 7 7 8 8 8 8 9 9 9 9 9 9
7 7 8 7 6 6 7 7 7 7 7 7 7 5 3 4 6 3 5 4 2 3 5 7 7 3 2 1 1 1 1 1 0 2 4 5 7 7 8 9 8 9 8 7 7 6 6 6 6 6 6 5 7 10 11 10 10 9 8 8 7 5 4 1 2 3 4 5 6 6 7 7 6 7 7 7 8 8 8 8 9 9 9 9 9
8 7 9 8 6 6 7 7 7 7 7 7 9 7 6 4 5 4 3 6 5 5 7 7 3 6 6 2 1 2 1 2 1 1 3 3 4 7 7 7 7 7 8 7 7 7 7 7 6 6 6 6 6 5 6 7 8 11 10 9 7 6 3 2 1 3 4 5 6 6 6 6 6 6 7 7 7 7 7 8 8 8 8 8 9
9 8 9 8 7 7 7 7 7 7 7 7 9 9 8 8 7 7 5 2 2 4 7 5 5 4 3 5 1 2 3 2 3 2 3 4 3 4 6 6 7 6 8 8 7 7 7 7 7 7 7 7 6 6 5 6 6 10 12 10 8 7 5 2 1 3 5 5 5 6 5 5 6 6 6 7 7 7 7 7 8 8 8 8 8
9 9 8 9 9 8 7 7 7 7 7 8 10 10 9 8 7 6 7 6 3 5 5 4 4 10 5 3 3 3 1 7 7 5 4 4 5 6 4 6 6 6 6 9 8 8 7 7 8 8 8 7 7 6 6 5 9 13 13 10 9 8 6 3 1 2 4 5 5 5 5 5 5 6 6 6 7 6 6 7 7 8 8 8 8
9 10 9 9 9 8 8 8 8 7 7 8 8 10 10 9 9 8 9 8 7 4 5 5 4 5 7 5 2 1 5 3 4 6 2 3 5 6 5 7 7 7 6 7 7 9 9 8 8 7 8 8 7 7 7 7 7 6 8 10 10 8 6 3 2 2 4 5 5 5 5 4 5 5 6 6 6 6 6 7 7 8 8 8 8
10 9 10 8 9 9 8 9 9 8 8 8 7 8 9 8 9 8 9 7 10 7 7 5 5 6 4 5 7 6 4 3 5 5 3 4 4 6 7 7 6 7 7 7 7 7 7 7 7 8 9 9 8 7 8 8 7 7 6 7 12 10 6 4 2 2 3 4 5 5 5 5 5 5 6 6 6 6 6 7 7 8 8 8 8
10 10 9 8 8 9 9 9 9 8 7 7 8 9 9 10 9 7 8 8 7 8 9 9 4 6 6 6 2 1 5 6 5 2 2 3 3 5 5 7 6 8 8 8 7 7 7 6 7 7 9 9 9 9 8 8 9 9 10 10 13 10 7 4 3 1 2 4 5 5 5 5 5 5 6 6 6 6 6 7 7 8 8 8 9
10 10 9 9 9 9 9 8 9 9 9 8 9 8 8 8 10 10 8 8 10 9 8 8 10 7 7 7 5 2 5 4 4 7 5 6 6 3 2 7 6 7 9 9 8 7 8 5 7 8 7 8 7 6 8 7 7 8 8 14 14 12 9 7 4 2 2 5 6 5 5 5 5 5 6 6 6 6 6 7 7 8 8 9 9
10 10 10 10 9 10 10 9 9 10 9 8 8 9 10 10 10 9 9 8 9 7 8 9 9 8 7 7 6 5 4 5 4 4 3 4 5 7 5 2 4 5 7 8 8 7 8 8 8 8 7 7 6 6 6 7 7 7 7 14 14 12 12 9 6 4 2 5 6 6 5 5 5 6 6 6 6 6 7 8 8 8 8 9 9
10 10 10 11 10 10 10 11 9 10 9 10 9 9 9 10 12 11 10 10 8 8 9 8 9 8 8 7 7 5 4 4 3 4 2 5 6 7 6 8 8 8 6 8 8 6 6 8 8 8 8 7 7 6 6 8 8 7 9 15 14 13 12 9 6 4 3 5 6 5 6 6 6 6 7 7 7 7 8 8 8 8 9 9 10
9 9 10 10 10 10 11 11 10 8 10 10 10 9 9 10 10 11 11 12 9 9 7 7 8 8 8 8 9 8 8 7 7 5 4 3 3 4 5 7 10 8 9 9 7 6 7 7 8 8 8 7 7 6 7 7 8 9 13 15 14 13 11 9 7 6 5 6 6 5 5 6 6 6 7 7 7 8 8 9 9 9 9 10 10
9 9 10 10 9 10 11 11 10 9 10 9 10 9 9 9 8 9 9 9 9 9 8 8 9 8 8 7 7 7 6 6 6 6 7 6 6 5 6 5 5 5 2 4 5 6 7 8 8 8 8 7 7 7 7 8 8 15 12 14 13 13 12 11 9 7 6 6 5 5 6 6 6 7 7 8 8 9 9 9 9 10 10 11 12
11 11 12 12 9 10 10 11 10 11 10 9 10 10 10 9 9 10 9 10 9 10 9 10 10 10 9 7 7 7 7 6 5 6 6 6 6 5 5 6 7 6 5 4 6 6 6 8 8 8 8 8 7 6 7 8 7 12 11 11 13 12 13 11 10 8 7 7 6 6 7 7 7 7 8 8 9 9 9 10 10 10 11 11 12
13 13 12 12 10 9 10 10 9 10 10 9 10 10 11 10 10 10 11 9 8 10 10 10 9 9 7 8 7 7 7 6 6 6 6 6 5 6 5 3 4 6 2 5 3 5 4 6 7 7 7 7 7 7 7 8 7 14 12 9 11 12 11 10 9 8 8 8 7 8 8 7 7 8 8 9 9 9 10 10 10 11 10 10 11
13 11 11 12 12 9 10 11 9 10 10 10 8 9 11 10 10 11 10 9 10 10 9 10 10 9 8 8 8 7 7 6 6 6 6 7 6 6 6 5 2 1 3 4 3 8 6 4 7 7 7 6 7 8 8 7 9 14 11 8 6 11 11 10 8 7 9 10 9 9 8 8 8 8 8 9 10 10 10 11 11 12 11 11 12
10 10 12 12 12 11 10 11 10 9 10 10 10 8 10 11 10 10 10 8 10 11 10 10 10 10 9 7 7 8 7 7 6 6 6 6 6 6 6 6 6 4 0 3 3 6 5 4 4 8 9 7 7 8 8 10 8 14 12 6 6 7 10 10 9 9 11 10 10 10 9 8 8 8 9 9 10 11 11 12 12 13 12 12 13
10 10 12 12 11 11 11 11 11 10 9 10 10 9 9 10 10 11 11 9 9 11 9 10 9 9 8 8 8 7 6 6 5 6 6 6 6 6 7 7 7 6 4 5 6 7 7 8 7 7 8 6 8 6 8 8 9 11 7 7 7 6 9 11 11 11 11 10 10 11 10 10 9 9 10 11 11 12 12 12 13 13 14 14 15
11 10 11 13 12 12 11 11 11 11 10 9 10 9 9 9 10 11 10 10 10 8 9 9 9 8 8 7 7 7 7 6 7 7 7 7 7 6 6 6 7 7 6 6 6 7 6 6 5 5 4 7 8 7 6 7 11 12 7 6 6 5 10 12 12 12 12 12 11 11 10 10 11 11 12 11 12 12 13 13 13 14 15 15 16
11 11 12 13 13 12 11 11 11 12 11 10 10 9 9 9 9 10 10 10 10 10 9 9 8 9 9 9 8 8 7 8 7 7 6 6 7 6 6 6 5 6 6 5 3 3 4 8 6 4 6 6 8 7 5 6 9 10 7 5 5 8 11 10 13 13 13 13 12 11 10 10 11 11 12 12 13 14 14 15 15 14 14 15 14
13 12 12 13 13 13 11 11 11 11 12 10 10 10 9 9 10 10 10 11 11 11 9 8 8 9 9 10 9 8 8 7 7 6 6 6 6 6 6 6 5 6 6 5 5 4 1 6 7 5 9 8 7 8 6 5 7 11 5 5 5 8 7 6 11 14 14 13 12 11 11 11 11 11 11 12 13 14 15 15 14 13 14 14 15
13 13 13 14 14 13 13 12 12 12 12 12 10 10 10 10 10 11 11 12 12 10 9 10 9 9 10 10 9 9 8 7 7 6 6 6 5 6 5 6 6 5 5 5 5 3 1 2 4 5 6 9 5 6 8 6 5 5 5 5 4 5 5 6 7 12 15 13 12 12 12 11 10 9 11 12 13 14 15 14 13 14 14 15 15
14 14 15 13 12 13 13 13 12 12 12 12 11 10 11 11 11 9 11 12 12 11 10 11 11 9 9 10 9 9 8 8 7 7 7 6 6 6 6 7 7 6 5 5 4 5 2 1 4 5 6 6 7 4 8 7 5 4 5 4 4 5 6 6 6 7 13 13 13 14 13 12 11 12 13 14 14 14 14 14 14 14 15 16 16
13 14 14 13 13 13 13 13 13 12 13 13 12 12 12 12 12 11 11 12 13 12 12 12 12 9 9 9 9 8 6 7 7 7 6 7 7 8 7 6 6 6 4 4 4 2 6 1 2 6 6 5 6 6 5 6 7 7 7 6 6 5 5 6 6 6 10 14 15 16 14 13 13 13 14 14 14 15 15 14 14 15 16 16 17
13 13 13 14 13 13 14 13 13 13 13 13 13 13 13 13 12 13 12 12 12 12 13 12 11 11 10 9 8 9 8 8 7 6 6 7 8 7 7 5 5 5 4 4 5 5 3 6 3 5 4 6 3 3 5 5 7 6 7 7 5 5 6 6 6 6 8 14 16 16 15 14 14 14 14 15 14 14 15 15 16 16 16 17 17
14 13 13 13 14 14 14 15 15 14 14 13 13 13 13 12 13 12 12 12 11 12 12 12 11 11 11 11 9 8 8 9 7 7 7 7 7 7 7 6 6 5 3 5 6 5 6 7 5 3 3 3 3 3 5 6 3 5 5 6 7 7 7 7 6 7 9 13 14 16 16 15 14 14 14 14 14 15 16 16 17 17 17 17 17
14 14 14 14 14 16 16 15 14 14 13 13 14 14 13 12 12 12 12 12 11 11 11 12 12 11 10 10 9 9 9 9 8 8 8 8 7 7 7 6 6 4 4 4 4 5 7 7 8 4 2 5 1 3 3 6 7 5 4 4 2 2 2 3 4 4 4 4 4 7 10 11 12 14 14 14 15 16 17 16 16 16 16 15 15
15 15 15 15 14 15 16 14 15 15 15 14 13 13 13 14 13 13 13 13 12 11 10 11 11 10 9 9 9 10 10 9 9 9 8 7 8 7 7 7 5 5 4 6 6 6 6 6 4 5 5 4 4 4 2 5 7 5 6 2 3 3 2 3 3 1 2 3 7 11 10 10 10 9 11 14 16 17 15 14 14 14 13 14 14
15 15 16 16 15 14 15 14 14 14 14 14 14 14 14 14 13 13 13 13 12 11 10 10 10 10 9 9 9 9 10 9 9 8 9 9 6 6 6 6 6 6 7 6 7 7 6 6 6 5 3 5 2 1 2 4 4 1 2 3 5 2 1 1 3 3 2 3 5 5 6 5 7 10 13 14 15 13 12 11 11 11 11 11 11
13 15 16 16 15 15 14 14 15 14 14 15 13 14 14 15 14 14 14 13 13 12 10 10 10 9 9 9 9 9 9 11 13 11 10 10 8 8 6 6 7 8 7 7 7 7 7 7 6 3 5 5 6 6 3 3 5 7 4 3 2 2 1 0 3 3 4 1 0 1 3 5 5 6 5 4 6 8 8 9 7 10 11 10 10
15 15 15 15 16 16 16 15 14 14 14 13 16 21 18 14 14 13 12 13 13 12 11 10 9 9 9 8 8 14 14 15 14 15 15 14 13 10 9 7 8 8 8 8 8 7 7 7 7 7 7 8 7 6 5 3 3 2 3 3 3 1 1 2 4 3 1 2 0 1 3 3 0 4 3 4 6 4 5 5 5 8 10 12 13
16 15 15 16 16 16 17 16 16 15 14 14 21 20 21 22 16 14 13 12 12 12 12 11 11 9 7 8 7 11 13 13 13 16 14 15 14 14 13 12 11 11 9 9 8 8 8 7 6 7 8 8 7 6 7 6 4 6 5 4 4 2 2 1 3 3 1 1 1 1 5 3 0 4 5 6 6 5 5 4 9 12 12 12 12
15 14 16 17 17 16 15 16 16 15 15 18 20 20 22 23 20 15 13 12 12 12 12 12 10 9 9 8 7 7 8 10 9 10 12 14 15 14 13 13 13 12 12 11 9 6 6 7 7 8 8 8 7 6 5 5 5 4 5 5 4 4 3 2 2 3 3 1 1 1 6 5 1 2 4 6 5 4 3 6 10 11 12 11 12
15 16 17 17 17 17 16 17 17 17 15 19 20 22 23 23 23 19 13 13 13 12 12 12 11 10 9 9 8 7 7 14 10 9 8 7 9 13 14 13 11 11 9 7 7 9 8 8 8 7 8 7 7 7 7 8 6 7 5 5 4 4 3 3 4 2 6 1 2 0 3 6 1 2 4 6 4 3 4 6 9 11 12 12 12
16 16 16 18 17 17 16 17 17 17 17 17 21 23 24 24 24 21 14 14 13 13 13 12 11 11 11 10 9 8 6 9 9 10 9 9 8 8 8 7 7 6 8 10 9 9 8 8 8 9 7 6 8 8 7 8 9 8 7 5 4 4 4 3 2 4 5 1 2 1 2 7 2 1 2 5 4 4 4 6 10 10 12 13 13
17 17 17 17 17 17 17 17 16 16 15 19 22 23 24 25 24 21 14 13 13 13 13 12 12 12 12 11 11 10 10 10 9 12 11 10 9 8 8 7 7 6 6 5 5 5 5 4 6 5 4 4 6 7 7 7 9 8 8 6 6 4 2 0 1 2 5 3 3 3 4 6 1 0 2 4 5 6 5 6 9 10 12 13 13
15 15 15 16 17 18 18 17 16 16 15 19 22 23 24 24 24 17 14 14 13 13 13 12 12 11 11 11 10 10 11 11 13 18 15 12 11 10 9 7 6 5 4 1 2 5 4 5 6 6 4 4 7 9 8 8 7 7 7 6 5 3 2 1 2 4 2 5 2 5 2 2 2 1 3 3 3 5 6 6 8 10 12 12 12
16 16 16 16 16 17 18 17 18 17 15 16 23 24 24 26 20 16 14 13 13 14 14 12 12 12 11 11 11 11 11 11 15 19 19 17 11 11 10 9 7 6 6 2 5 9 10 11 12 10 8 9 10 12 13 13 10 8 7 6 3 3 2 1 2 2 4 1 1 4 3 0 1 1 4 3 2 4 6 7 5 7 11 12 12
16 17 16 15 16 16 18 19 19 18 17 16 23 23 25 26 24 18 14 13 13 13 12 12 11 11 13 18 15 13 13 12 18 19 20 17 13 12 11 10 9 8 5 4 5 5 8 10 10 10 9 10 11 11 12 13 13 10 8 7 5 6 4 5 3 2 4 4 2 1 0 1 2 1 2 5 4 2 5 6 5 6 9 9 11
16 15 15 15 15 16 17 19 22 21 16 12 19 22 25 27 24 16 14 13 13 13 12 12 11 11 11 15 20 16 15 15 21 20 21 17 13 13 12 11 10 10 10 9 9 8 6 6 4 6 4 5 5 6 6 10 11 8 7 7 6 7 6 6 3 0 2 3 2 2 1 1 1 3 1 4 3 6 3 3 4 6 6 6 6
Wind_Direction
167 169 164 161 163 168 173 177 179 182 173 180 185 205 211 210 217 226 234 232 214 221 171 146 161 140 157 146 135 132 147 140 134 133 133 134 138 141 138 132 131 130 128 127 126 126 129 128 127 128 126 122 119 118 118 113 107 100 93 85 79 72 66 62 57 52 48 43 38 33 30 28 26 27 27 24 24 20 19 22 22 21 17 14 17
167 169 169 160 168 168 173 178 183 176 173 183 191 200 216 211 213 222 237 241 224 210 138 160 150 145 163 151 136 142 154 147 138 137 135 134 143 143 143 135 134 132 133 134 131 132 133 132 131 131 132 129 125 125 121 115 109 103 93 85 76 70 64 59 51 45 38 35 30 28 26 27 25 26 24 20 19 17 11 16 17 14 9 11 7
157 166 169 162 163 164 172 178 184 181 179 189 188 203 214 218 201 215 224 233 326 119 145 144 147 158 156 151 146 144 152 150 138 140 141 138 123 114 137 134 132 132 135 139 137 136 137 137 137 137 135 135 131 125 118 112 106 100 94 88 81 70 59 48 40 35 31 25 28 33 25 25 23 23 23 20 16 14 12 15 15 10 5 1 10
153 170 168 168 168 175 175 174 192 181 185 185 197 205 205 219 213 213 216 112 115 115 136 141 153 150 149 151 149 148 157 157 150 154 139 130 127 124 122 136 139 139 142 144 144 142 141 144 145 144 142 138 136 128 120 113 108 103 99 93 83 69 53 34 29 33 31 33 27 27 26 21 19 19 20 16 12 11 12 12 12 8 4 357 5
156 172 172 173 180 180 169 176 190 181 179 184 195 206 212 219 222 211 92 109 98 105 113 142 139 147 144 148 151 156 164 164 162 154 146 146 143 140 141 141 143 147 149 152 148 147 149 151 153 152 150 148 142 137 126 121 118 114 106 97 79 64 27 30 25 16 21 31 20 20 23 20 16 12 14 11 7 5 8 8 7 6 2 358 357
155 184 168 168 181 182 166 156 161 162 156 172 192 198 200 167 166 80 100 101 119 120 128 123 130 132 141 150 154 163 164 172 176 167 151 153 148 145 150 145 147 150 157 158 155 153 155 160 160 160 158 155 156 152 148 142 133 127 120 106 93 56 42 37 25 13 19 26 15 17 20 15 9 5 6 7 3 2 6 8 7 6 5 360 358
159 178 174 168 169 169 165 162 159 144 149 161 178 196 178 125 94 106 101 104 110 126 129 134 148 151 159 155 156 157 163 178 185 179 162 149 149 155 152 154 158 161 156 153 160 162 163 167 168 163 165 170 169 165 162 158 152 144 134 122 110 74 10 358 1 360 11 16 11 11 16 9 4 0 6 6 2 5 9 9 8 8 7 6 3
168 177 163 168 158 161 162 154 162 143 158 150 146 183 143 79 95 134 115 110 122 122 127 136 139 151 149 162 161 158 158 178 185 190 153 151 160 161 157 157 165 161 153 154 155 165 170 175 169 170 173 179 178 175 175 175 171 162 172 168 187 202 224 348 354 354 7 10 3 7 11 3 359 359 7 3 4 8 9 8 7 9 10 9 5
175 183 165 156 157 158 166 159 163 153 156 154 150 154 122 106 92 141 123 139 135 136 138 137 144 142 153 153 173 164 171 182 198 202 157 160 166 163 154 164 170 167 154 159 161 170 176 178 175 176 184 189 194 188 182 191 183 170 153 173 168 224 246 336 347 347 2 5 4 6 7 0 356 4 5 4 7 9 8 9 10 12 10 8 8
178 183 173 153 159 162 167 169 159 156 149 153 137 123 105 103 111 30 119 130 143 145 152 145 138 143 149 163 166 166 194 208 212 201 168 166 165 162 164 168 171 167 165 167 173 175 174 179 180 186 191 204 206 199 196 196 199 191 184 179 228 229 328 348 339 342 355 2 2 1 2 356 359 6 2 5 8 8 8 13 11 10 9 9 7
179 180 170 165 162 169 167 169 158 156 142 147 137 182 137 116 133 133 82 122 151 160 153 145 140 141 154 178 164 188 222 219 176 175 166 159 160 160 162 173 173 167 170 172 178 176 170 174 175 185 192 200 206 201 201 194 207 209 197 201 200 234 285 315 340 348 357 2 1 359 356 358 4 3 359 6 8 7 10 14 8 7 8 6 4
177 178 170 177 170 177 168 160 155 153 148 134 140 168 159 136 148 143 121 97 127 146 137 128 114 127 147 146 215 225 229 192 135 146 160 148 149 151 167 176 171 171 171 174 177 177 175 174 178 180 182 204 205 204 196 194 198 213 202 203 204 207 237 282 344 350 359 356 355 356 355 4 4 359 359 7 6 5 11 11 4 3 6 2 358
180 173 179 183 178 164 155 161 155 160 162 152 162 181 186 162 143 141 143 137 176 174 151 136 133 91 51 65 40 30 45 108 76 125 160 176 156 157 162 164 173 165 172 170 172 177 178 183 183 179 186 198 214 208 200 202 200 209 209 211 204 195 213 241 324 347 350 349 350 352 357 4 359 0 360 4 2 3 11 6 0 1 2 357 353
182 174 181 185 175 165 158 162 162 164 168 149 156 175 179 170 152 148 180 155 170 176 162 130 143 157 146 113 5 336 336 7 326 137 198 208 181 156 166 167 175 163 162 165 175 179 186 186 187 187 190 195 208 215 205 205 207 211 214 213 204 203 197 208 298 331 344 344 346 349 1 4 359 360 358 1 357 2 7 0 357 358 356 352 349
182 174 180 186 181 165 167 164 168 164 161 159 150 167 179 173 170 160 164 151 146 180 173 177 144 127 111 101 170 191 311 338 299 240 190 200 222 167 171 171 178 174 158 168 175 186 187 190 191 192 193 197 198 206 209 208 209 214 215 215 205 207 204 183 274 327 335 339 343 347 3 359 356 356 356 353 351 2 3 357 354 356 351 347 347
181 181 178 182 179 172 167 168 172 172 171 170 158 166 173 175 170 171 160 155 172 193 193 188 141 139 153 181 174 123 262 246 227 256 163 202 198 204 172 178 177 177 154 166 184 184 191 192 195 191 197 196 194 196 199 215 212 214 216 212 203 208 194 190 236 303 328 335 339 343 355 353 352 354 348 344 346 359 358 355 353 350 345 343 345
181 183 181 176 178 170 168 173 172 175 175 176 166 169 177 179 180 168 179 167 178 173 203 199 192 196 137 125 93 195 219 221 162 263 214 202 218 205 189 180 173 176 180 194 180 183 189 195 200 190 193 193 193 191 196 211 209 209 214 207 201 197 186 183 232 312 323 331 335 336 343 346 349 350 338 335 344 353 354 350 349 344 338 339 340
185 181 184 174 178 175 170 173 179 176 176 178 169 162 173 177 191 179 176 183 171 163 184 212 200 218 225 184 160 175 182 185 122 240 258 215 205 204 191 198 171 174 193 192 198 200 192 188 189 183 188 192 192 188 195 200 200 202 191 194 192 187 169 172 212 278 317 322 323 328 336 343 343 345 327 330 342 350 346 346 341 336 335 334 335
187 184 181 179 176 179 172 176 179 180 173 173 177 173 175 180 186 190 184 167 162 175 183 188 199 237 224 236 224 187 135 126 197 102 189 263 234 206 204 201 177 176 190 201 199 200 213 190 184 178 182 187 191 187 193 194 192 187 182 182 191 184 166 177 225 283 308 311 317 323 331 335 336 334 321 327 341 343 341 338 333 330 329 329 329
184 187 184 178 179 180 179 173 178 180 175 180 183 180 173 181 182 192 185 169 175 178 185 182 188 209 206 223 237 216 162 171 151 169 160 176 233 262 237 201 186 189 191 197 203 197 205 190 184 183 183 185 184 175 169 179 184 180 180 182 191 182 174 183 188 230 303 309 313 322 326 329 328 319 316 326 338 337 333 329 327 325 324 324 327
185 186 188 185 181 182 183 181 179 180 180 182 182 180 180 178 182 184 187 184 181 180 173 190 195 201 183 219 220 224 206 208 175 156 137 164 226 209 221 250 239 217 201 203 207 199 194 184 185 182 184 190 188 186 161 171 176 178 181 184 188 185 187 185 175 164 238 289 303 313 318 325 320 311 314 325 330 330 326 324 321 319 320 322 324
190 189 190 191 185 182 184 188 184 181 179 182 182 183 185 182 182 185 183 185 191 181 183 189 196 199 194 189 197 202 207 231 205 179 186 171 177 203 204 181 200 231 206 207 210 207 198 180 182 183 186 192 193 186 156 171 175 171 180 181 184 186 181 169 167 165 205 255 278 299 312 313 311 307 313 321 327 322 321 316 316 319 320 322 321
191 196 195 193 189 186 186 188 188 179 180 179 186 185 186 184 181 184 182 181 189 191 191 184 186 193 195 186 199 192 193 190 205 194 175 184 174 204 201 199 198 215 232 215 207 195 191 182 185 186 189 192 192 189 160 176 176 174 174 177 181 181 174 168 177 181 214 246 262 281 292 297 298 305 311 319 318 317 313 314 316 318 321 320 319
193 197 200 196 189 189 187 187 189 186 183 182 184 184 182 179 179 181 186 182 181 185 185 185 185 192 198 194 197 195 194 195 198 188 191 205 178 196 192 203 232 238 234 206 228 197 192 191 196 185 185 188 193 187 159 170 180 174 170 177 181 179 174 178 182 185 205 234 248 255 272 288 298 304 310 313 312 310 310 311 315 321 318 317 318
198 198 201 198 190 188 188 188 188 191 187 182 184 180 178 178 178 184 184 182 178 179 181 187 184 188 200 201 194 195 203 204 191 193 194 190 177 187 224 182 197 213 224 166 211 220 185 199 195 198 176 184 182 158 166 168 174 173 163 179 179 181 180 181 185 188 204 228 234 245 262 276 287 294 301 302 303 306 308 309 312 308 307 310 311
194 199 195 196 197 192 190 189 182 186 189 187 184 180 177 177 178 183 188 187 179 181 184 183 185 191 185 190 200 200 208 195 199 191 181 170 189 195 209 211 185 196 177 190 201 180 240 207 200 194 192 178 166 155 165 171 169 172 165 171 186 183 182 187 189 191 211 227 228 238 248 260 272 283 289 294 298 299 298 299 298 300 303 302 304
197 195 187 196 197 190 192 190 182 182 187 189 184 178 176 175 178 183 186 184 184 182 186 182 187 189 189 190 196 203 204 203 188 203 185 182 169 175 172 220 283 71 169 198 195 207 204 202 192 197 196 178 155 163 168 170 172 173 167 170 183 185 183 187 189 198 222 235 233 236 243 251 262 270 278 283 286 286 286 290 296 299 302 302 302
196 190 195 194 196 192 190 193 186 181 186 190 189 178 176 174 178 179 185 185 182 184 187 186 191 189 189 186 185 205 204 205 201 207 201 190 186 177 173 177 198 244 179 204 223 242 213 191 205 201 198 171 164 169 169 162 170 175 170 172 177 188 189 187 193 204 224 235 235 234 236 242 249 257 266 270 275 281 286 291 297 300 300 297 296
193 192 194 196 195 194 191 191 190 185 182 190 190 183 177 175 177 180 186 187 182 187 183 187 192 186 186 187 192 197 208 209 213 211 210 197 186 177 173 177 175 182 183 212 226 221 236 202 183 213 195 151 161 171 162 172 172 170 174 174 175 181 192 192 198 208 222 232 235 233 236 241 246 251 259 266 276 283 290 293 293 294 293 291 292
190 190 192 195 197 195 192 191 191 190 186 185 190 184 178 181 180 182 185 183 185 184 186 185 187 184 187 191 194 203 206 204 213 211 206 202 189 182 177 175 164 181 188 193 240 215 230 212 182 175 167 153 154 169 170 169 177 170 175 173 171 181 194 197 202 210 224 231 232 230 234 243 251 257 264 271 277 283 287 286 286 285 286 287 288
192 189 190 194 196 198 195 192 190 193 190 187 187 187 180 182 183 183 183 183 185 187 188 184 187 183 189 193 194 201 200 202 201 198 198 189 194 193 194 175 176 175 181 183 227 264 192 193 206 173 150 160 162 159 166 167 176 173 175 175 181 185 188 201 206 212 222 228 230 230 231 238 245 249 258 265 270 275 278 279 278 279 280 281 282
193 191 191 194 196 197 197 193 192 192 192 190 185 188 183 185 183 185 186 183 187 189 190 191 187 190 188 192 192 193 194 193 199 197 197 197 190 187 188 188 187 179 157 162 189 242 252 190 176 148 149 151 160 154 160 169 184 180 174 187 186 178 180 204 213 215 221 225 227 231 233 237 244 253 259 260 262 264 268 269 271 274 275 276 276
190 191 196 197 196 197 196 196 194 193 193 191 188 187 188 188 188 188 186 187 188 191 188 192 193 187 188 192 193 197 189 193 200 199 199 200 196 195 191 182 191 187 164 160 166 209 344 14 109 130 147 140 160 166 157 168 172 195 190 190 173 166 184 197 211 221 222 223 224 229 235 237 243 250 254 255 259 262 264 267 270 271 272 272 274
189 192 196 197 195 195 198 200 197 195 194 193 189 187 191 190 191 190 190 190 190 188 186 190 191 188 186 191 197 196 192 194 201 204 198 199 191 186 189 176 185 200 187 159 176 142 168 358 68 97 143 166 153 194 160 169 188 178 187 199 200 190 195 196 205 223 224 220 221 227 232 235 240 248 253 257 260 262 263 266 269 272 272 272 273
193 193 193 194 194 194 199 201 200 198 194 193 190 190 193 193 192 194 192 191 190 188 190 191 189 184 182 192 197 193 192 200 208 208 189 189 182 184 187 176 181 195 197 173 133 137 144 158 165 143 159 171 165 187 179 182 179 175 184 206 207 209 213 203 204 218 221 217 219 223 228 232 239 245 250 254 257 260 264 268 269 270 271 272 273
193 194 192 192 192 194 199 202 203 200 196 194 191 193 193 192 194 196 193 193 193 191 192 190 190 190 190 185 192 189 191 198 202 196 194 176 172 177 182 196 180 189 195 179 169 138 166 139 223 176 180 160 214 187 166 176 163 179 193 209 207 205 217 213 205 213 224 217 217 219 224 230 236 242 249 254 259 263 268 271 272 272 272 272 273
194 192 192 192 193 195 199 204 203 201 198 194 193 195 194 193 194 194 195 194 193 193 192 191 190 190 192 194 188 179 176 184 188 187 183 183 182 173 183 186 184 190 177 176 178 143 143 161 180 221 178 193 201 184 152 158 191 196 204 202 201 203 207 213 200 214 217 213 213 218 223 229 235 242 251 258 264 268 271 273 275 277 278 278 281
195 194 191 192 195 198 202 204 204 204 198 194 195 195 194 193 192 193 194 195 195 194 192 192 193 192 192 193 189 184 179 177 185 182 178 183 178 178 179 180 180 178 169 154 150 150 152 170 164 173 200 176 193 229 178 164 165 194 217 246 293 290 214 238 224 210 203 193 217 234 241 241 246 249 253 260 264 268 269 271 275 279 284 287 285
196 195 195 195 197 199 201 202 204 203 200 196 195 194 194 193 192 191 193 194 196 199 196 193 194 194 190 190 192 194 195 187 176 182 182 178 176 181 176 176 176 163 159 153 154 150 159 160 183 177 171 212 165 199 236 163 180 173 182 177 245 295 288 215 275 307 205 230 230 227 224 219 228 240 252 255 259 262 271 279 285 291 290 287 287
200 197 197 198 198 199 199 202 204 201 200 200 199 196 194 192 190 193 191 192 195 199 198 195 193 192 189 186 189 190 190 190 183 182 176 178 170 172 179 167 159 157 160 156 151 155 159 167 177 181 180 173 209 236 74 92 109 95 162 149 196 240 261 299 219 239 278 200 245 262 265 267 268 258 261 259 258 266 278 292 300 294 292 294 297
203 201 200 199 197 198 202 203 202 200 201 202 201 196 193 191 189 190 191 191 193 194 194 195 194 188 184 184 185 185 185 183 181 178 181 170 165 174 190 163 160 159 158 157 157 161 163 161 186 164 161 169 183 155 148 152 172 186 221 153 173 206 202 340 304 240 218 214 229 188 238 207 216 231 242 288 292 294 304 302 291 301 304 313 315
204 202 200 199 199 199 202 204 201 201 203 205 202 194 188 189 188 188 187 191 192 192 189 189 192 189 186 183 185 181 180 178 178 176 174 173 174 174 174 167 163 161 164 161 167 170 169 173 179 168 174 187 191 179 171 207 175 137 106 129 158 259 37 358 320 290 317 97 86 329 284 260 221 308 319 293 286 299 283 288 302 305 314 326 324
205 202 200 200 201 203 204 202 201 202 204 205 197 186 187 184 184 187 186 188 191 192 192 188 189 188 186 182 180 179 175 176 175 174 174 176 176 175 170 171 169 165 165 170 178 171 174 182 180 173 181 191 204 188 183 179 165 160 176 161 152 116 144 185 263 307 278 123 99 23 307 276 144 295 300 287 282 285 272 294 306 314 321 325 317
208 203 203 202 203 204 205 205 204 204 206 204 187 184 184 184 183 184 184 185 188 193 193 192 186 181 179 179 181 173 175 175 171 174 175 175 170 167 160 163 170 172 173 171 172 177 174 176 183 190 179 189 196 186 188 158 175 153 164 153 156 154 164 183 197 206 248 47 82 31 292 287 336 256 285 278 265 241 273 289 306 314 319 314 312
207 206 204 202 205 205 205 205 207 207 210 200 185 183 184 183 183 179 187 183 185 193 192 190 185 179 175 174 175 174 173 167 160 162 156 154 149 145 142 142 146 149 149 159 176 179 170 176 183 193 188 185 181 197 186 177 158 161 163 161 168 160 172 196 227 238 289 204 57 256 256 275 295 276 278 273 250 269 286 299 304 312 308 304 311
207 208 206 205 205 205 205 207 208 209 210 197 185 184 184 183 181 180 184 184 185 189 190 188 185 181 179 175 170 170 164 163 161 158 152 145 143 138 141 145 144 136 136 136 141 161 171 177 177 195 214 172 184 186 191 154 150 167 161 178 151 121 138 191 210 212 255 171 195 169 309 285 275 224 259 268 269 284 274 280 298 305 301 302 315
206 206 207 206 206 205 206 208 210 209 212 195 185 183 184 182 181 180 182 183 186 189 189 186 184 183 181 176 172 168 166 169 169 161 151 151 148 151 151 155 155 157 148 143 146 148 139 143 163 173 169 183 167 158 156 159 153 161 161 159 162 164 173 249 337 293 304 282 155 137 229 267 305 27 268 278 302 300 283 289 298 294 293 303 316
209 209 210 208 207 207 207 208 209 211 213 190 185 184 182 181 177 183 183 185 185 187 189 184 180 180 178 171 169 166 170 172 171 161 155 150 151 155 159 158 155 151 149 125 144 132 138 143 139 143 151 140 144 143 144 134 124 118 108 97 82 83 82 40 274 301 292 290 140 142 178 273 247 16 289 277 302 303 300 302 285 283 289 304 314
208 208 208 206 207 207 207 208 209 212 213 190 186 183 180 178 174 188 184 184 185 187 190 182 178 176 175 171 170 169 171 175 168 163 157 153 157 162 162 165 162 150 156 73 80 103 112 110 111 113 122 117 122 128 129 131 135 133 109 107 145 121 124 202 285 313 272 265 271 161 151 242 286 286 299 286 287 291 302 294 285 281 293 299 312
210 210 207 209 208 208 207 208 207 209 211 195 187 181 178 177 180 186 185 182 185 186 186 183 179 177 178 172 172 171 173 174 166 165 163 159 165 167 165 161 160 159 166 149 115 74 85 101 108 113 113 115 117 123 131 134 139 138 134 160 188 127 153 168 209 232 282 319 267 165 80 222 279 264 270 303 342 280 266 269 269 290 298 310 321
212 209 208 209 209 209 209 209 209 209 211 191 189 179 178 179 183 185 182 183 184 188 184 184 180 176 179 176 175 172 174 168 167 168 169 170 170 170 169 163 169 175 182 168 150 141 139 119 108 110 97 118 124 129 136 137 140 140 145 158 156 148 182 192 185 295 337 299 267 146 78 280 317 276 134 4 337 285 266 267 292 296 305 310 321